Location: Goettingen
(51.5300°N, 9.9433°E)
Time: 15:03:11
(UTC+02:00)

ISS - Pass Details

Date: 02 October 2022
Orbit: 414 x 417 km, 51.6° (Epoch: 28 September)

Event Time Altitude Azimuth Distance (km) Brightness Sun altitude
Rises 19:40:21 0° 284° (WNW) 2,361 2.2 -7.7°
Reaches altitude 10° 19:42:32 10° 276° (W) 1,496 0.8 -8.1°
Maximum altitude 19:45:39 37° 207° (SSW) 671 -2.5 -8.6°
Drops below altitude 10° 19:48:46 10° 139° (SE) 1,490 -1.4 -9.1°
Enters shadow 19:49:21 - 136° (SE) 1,714 -1.1 -9.1°
